TimeMDT,TemperatureF,Dew PointF,Humidity,Sea Level PressureIn,VisibilityMPH,Wind Direction,Wind SpeedMPH,Gust SpeedMPH,PrecipitationIn,Events,Conditions,WindDirDegrees,DateUTC
12:15 AM,57.6,46.4,66,30.16,10.0,Calm,Calm,-,N/A,,Clear,0,2013-09-09 06:15:00
12:35 AM,57.2,45.9,66,30.17,10.0,Calm,Calm,-,N/A,,Clear,0,2013-09-09 06:35:00
12:55 AM,55.8,45.7,69,30.16,10.0,Calm,Calm,-,N/A,,Clear,0,2013-09-09 06:55:00
1:15 AM,53.8,43.5,68,30.16,10.0,Calm,Calm,-,N/A,,Clear,0,2013-09-09 07:15:00
1:35 AM,54.0,43.7,68,30.16,10.0,East,6.9,-,N/A,,Clear,90,2013-09-09 07:35:00
1:55 AM,55.6,45.7,69,30.16,10.0,ESE,5.8,-,N/A,,Clear,120,2013-09-09 07:55:00
2:15 AM,55.2,45.1,69,30.16,10.0,SW,3.5,-,N/A,,Clear,230,2013-09-09 08:15:00
2:35 AM,53.2,43.2,69,30.16,10.0,WNW,5.8,-,N/A,,Clear,290,2013-09-09 08:35:00
2:55 AM,52.0,43.9,74,30.14,10.0,NNW,4.6,-,N/A,,Clear,330,2013-09-09 08:55:00
3:15 AM,50.5,42.8,75,30.14,10.0,Calm,Calm,-,N/A,,Clear,0,2013-09-09 09:15:00
3:35 AM,50.4,43.0,76,30.14,10.0,ENE,5.8,-,N/A,,Clear,60,2013-09-09 09:35:00
3:55 AM,50.9,43.7,76,30.13,10.0,ENE,4.6,-,N/A,,Clear,70,2013-09-09 09:55:00
4:15 AM,50.5,43.5,77,30.13,10.0,Calm,Calm,-,N/A,,Clear,0,2013-09-09 10:15:00
4:35 AM,49.1,42.6,78,30.14,10.0,NW,6.9,-,N/A,,Clear,310,2013-09-09 10:35:00
4:55 AM,49.3,43.2,79,30.14,10.0,North,3.5,-,N/A,,Clear,350,2013-09-09 10:55:00
5:15 AM,49.6,43.5,79,30.14,10.0,Calm,Calm,-,N/A,,Clear,0,2013-09-09 11:15:00
5:35 AM,48.9,43.2,80,30.14,10.0,Calm,Calm,-,N/A,,Clear,0,2013-09-09 11:35:00
5:55 AM,48.4,42.8,81,30.14,10.0,NW,3.5,-,N/A,,Clear,310,2013-09-09 11:55:00
6:15 AM,46.8,40.6,79,30.14,10.0,Calm,Calm,-,N/A,,Clear,0,2013-09-09 12:15:00
6:35 AM,46.9,41.2,80,30.15,10.0,Calm,Calm,-,N/A,,Clear,0,2013-09-09 12:35:00
6:55 AM,46.8,40.6,79,30.16,10.0,Calm,Calm,-,N/A,,Clear,0,2013-09-09 12:55:00
7:15 AM,48.4,41.5,77,30.16,10.0,NNW,3.5,-,N/A,,Mostly Cloudy,340,2013-09-09 13:15:00
7:35 AM,52.5,43.7,72,30.16,10.0,Calm,Calm,-,N/A,,Scattered Clouds,0,2013-09-09 13:35:00
7:55 AM,55.4,44.8,67,30.16,10.0,Calm,Calm,-,N/A,,Clear,0,2013-09-09 13:55:00
8:15 AM,58.8,46.0,63,30.16,10.0,Calm,Calm,-,N/A,,Clear,0,2013-09-09 14:15:00
8:35 AM,61.5,46.9,59,30.16,10.0,Calm,Calm,-,N/A,,Scattered Clouds,0,2013-09-09 14:35:00
8:55 AM,63.5,47.3,56,30.16,10.0,Calm,Calm,-,N/A,,Scattered Clouds,0,2013-09-09 14:55:00
9:15 AM,65.5,47.7,53,30.16,10.0,Calm,Calm,-,N/A,,Scattered Clouds,0,2013-09-09 15:15:00
9:35 AM,66.4,48.0,52,30.17,10.0,SSE,3.5,-,N/A,,Scattered Clouds,150,2013-09-09 15:35:00
9:55 AM,67.6,48.2,50,30.17,10.0,SSE,6.9,-,N/A,,Scattered Clouds,150,2013-09-09 15:55:00
10:15 AM,70.7,48.4,45,30.17,10.0,SE,9.2,-,N/A,,Scattered Clouds,140,2013-09-09 16:15:00
10:35 AM,72.7,48.7,43,30.16,10.0,SE,6.9,-,N/A,,Scattered Clouds,140,2013-09-09 16:35:00
10:55 AM,74.3,48.2,40,30.16,10.0,South,9.2,-,N/A,,Mostly Cloudy,170,2013-09-09 16:55:00
11:15 AM,75.2,47.5,37,30.16,10.0,South,10.4,-,N/A,,Scattered Clouds,170,2013-09-09 17:15:00
11:35 AM,75.7,46.9,36,30.16,10.0,SE,9.2,17.3,N/A,,Clear,140,2013-09-09 17:35:00
11:55 AM,76.6,45.7,33,30.15,10.0,SSW,3.5,-,N/A,,Clear,210,2013-09-09 17:55:00
12:15 PM,77.2,45.0,32,30.14,10.0,SW,3.5,-,N/A,,Scattered Clouds,220,2013-09-09 18:15:00
12:35 PM,78.6,46.0,32,30.13,10.0,South,5.8,-,N/A,,Scattered Clouds,180,2013-09-09 18:35:00
12:55 PM,79.3,45.1,30,30.12,10.0,Calm,Calm,-,N/A,,Scattered Clouds,0,2013-09-09 18:55:00
1:15 PM,79.5,44.4,29,30.11,10.0,SE,11.5,17.3,N/A,,Clear,140,2013-09-09 19:15:00
1:35 PM,79.3,44.2,29,30.10,10.0,SE,8.1,20.7,N/A,,Scattered Clouds,130,2013-09-09 19:35:00
1:55 PM,79.9,40.8,25,30.10,10.0,SE,9.2,16.1,N/A,,Scattered Clouds,130,2013-09-09 19:55:00
2:15 PM,82.4,39.9,22,30.08,10.0,South,9.2,16.1,N/A,,Clear,170,2013-09-09 20:15:00
2:35 PM,82.9,39.9,22,30.07,10.0,SSE,16.1,23.0,N/A,,Clear,160,2013-09-09 20:35:00
2:55 PM,82.4,36.0,19,30.06,10.0,SSE,11.5,24.2,N/A,,Scattered Clouds,160,2013-09-09 20:55:00
3:15 PM,83.5,36.7,19,30.06,10.0,SE,15.0,24.2,N/A,,Clear,140,2013-09-09 21:15:00
3:35 PM,82.4,38.3,21,30.05,10.0,SE,11.5,21.9,N/A,,Clear,130,2013-09-09 21:35:00
3:55 PM,82.6,38.1,20,30.04,10.0,SSE,5.8,21.9,N/A,,Clear,150,2013-09-09 21:55:00
4:15 PM,82.6,39.6,22,30.04,10.0,ESE,11.5,23.0,N/A,,Clear,120,2013-09-09 22:15:00
4:35 PM,82.6,38.7,21,30.04,10.0,SE,10.4,21.9,N/A,,Clear,130,2013-09-09 22:35:00
4:55 PM,81.7,37.6,21,30.04,10.0,South,12.7,23.0,N/A,,Clear,170,2013-09-09 22:55:00
5:15 PM,81.5,37.8,21,30.04,10.0,SE,15.0,23.0,N/A,,Clear,130,2013-09-09 23:15:00
5:35 PM,81.0,38.1,22,30.04,10.0,SSE,18.4,23.0,N/A,,Clear,150,2013-09-09 23:35:00
5:55 PM,79.7,38.8,23,30.04,10.0,SE,15.0,23.0,N/A,,Clear,140,2013-09-09 23:55:00
6:15 PM,77.2,38.7,25,30.04,10.0,SE,16.1,23.0,N/A,,Clear,130,2013-09-10 00:15:00
6:35 PM,77.2,39.4,26,30.04,10.0,ESE,16.1,-,N/A,,Clear,120,2013-09-10 00:35:00
6:55 PM,75.6,40.1,28,30.05,10.0,SE,13.8,-,N/A,,Clear,130,2013-09-10 00:55:00
7:15 PM,73.9,40.5,30,30.06,10.0,ESE,13.8,-,N/A,,Clear,120,2013-09-10 01:15:00
7:35 PM,72.5,41.9,33,30.07,10.0,SE,13.8,-,N/A,,Clear,130,2013-09-10 01:35:00
7:55 PM,71.1,41.9,35,30.08,10.0,SE,11.5,-,N/A,,Clear,140,2013-09-10 01:55:00
8:15 PM,69.8,43.7,39,30.09,10.0,SE,12.7,-,N/A,,Clear,140,2013-09-10 02:15:00
8:35 PM,69.1,46.0,44,30.10,10.0,SE,15.0,-,N/A,,Clear,130,2013-09-10 02:35:00
8:55 PM,68.4,47.3,47,30.11,10.0,SE,13.8,-,N/A,,Clear,140,2013-09-10 02:55:00
9:15 PM,67.5,48.4,50,30.12,10.0,SE,13.8,-,N/A,,Clear,130,2013-09-10 03:15:00
9:35 PM,66.9,48.9,52,30.12,10.0,SE,13.8,-,N/A,,Clear,130,2013-09-10 03:35:00
9:55 PM,66.0,48.7,54,30.12,10.0,SE,12.7,-,N/A,,Clear,130,2013-09-10 03:55:00
10:15 PM,65.8,48.6,54,30.13,10.0,ESE,13.8,-,N/A,,Clear,120,2013-09-10 04:15:00
10:35 PM,65.7,48.9,55,30.14,10.0,SE,15.0,-,N/A,,Clear,130,2013-09-10 04:35:00
10:55 PM,65.7,49.1,55,30.14,10.0,SE,12.7,-,N/A,,Clear,130,2013-09-10 04:55:00
11:15 PM,63.1,48.9,60,30.15,10.0,South,10.4,-,N/A,,Clear,170,2013-09-10 05:15:00
11:35 PM,62.1,48.6,61,30.14,10.0,SSE,9.2,-,N/A,,Clear,150,2013-09-10 05:35:00
11:55 PM,61.2,48.6,63,30.15,10.0,SSE,5.8,-,N/A,,Scattered Clouds,160,2013-09-10 05:55:00